Regional Weather Roundup
Issued by NWS

Home | Current Version | Previous Version | Graphics & Text | Print | Product List | Glossary Off
Versions: 1 2 3 4 5 6 7 8 9 10 11 12 13 14 15 16 17 18 19 20 21 22 23 24 25 26 27 28 29 30 31 32 33 34 35 36 37 38 39 40 41 42 43 44 45 46 47 48 49 50

000
ASUS43 KMKX 020521
RWRWI

WISCONSIN REGIONAL WEATHER ROUNDUP
NATIONAL WEATHER SERVICE MILWAUKEE/SULLIVAN WI
1200 AM CDT SAT AUG 02 2014

NOTE: "FAIR" INDICATES FEW OR NO CLOUDS BELOW 12,000 FEET WITH NO
SIGNIFICANT WEATHER AND/OR OBSTRUCTIONS TO VISIBILITY.

WIZ001-002-006>008-014>016-023>028-020600-
NORTHWEST WISCONSIN

CITY           SKY/WX    TMP DP  RH WIND       PRES   REMARKS
SUPERIOR ARPT  CLEAR     55  51  89 NE5       30.10R
ASHLAND        CLOUDY    56  55  97 CALM      30.11S FOG
HAYWARD        CLEAR     60  57  89 CALM      30.11S
SIREN          CLEAR     62  59  91 CALM      30.09R
RICE LAKE      CLEAR     61  59  93 CALM      30.12R FOG
LADYSMITH      CLEAR     61  57  86 E3        30.13S
EAU CLAIRE     CLEAR     66  63  90 SE3       30.08F
MENOMONIE      CLEAR     65  61  87 CALM      30.09S
NEW RICHMOND   CLEAR     65  63  92 E3        30.09S
OSCEOLA        CLEAR     65  62  90 E3        30.11R
$$

WIZ003>005-009-010-017-018-020600-
NORTH CENTRAL WISCONSIN

CITY           SKY/WX    TMP DP  RH WIND       PRES   REMARKS
WOODRUFF       CLEAR     53  44  71 CALM      30.14R
RHINELANDER    CLEAR     54  52  93 N3        30.14S
EAGLE RIVER    CLEAR     54  54 100 CALM      30.14R
LAND O LAKES     N/A     50  49  99 CALM      30.16R FOG
PHILLIPS       PTCLDY    55  55  98 CALM      30.13R
TOMAHAWK       CLEAR     52  51  95 CALM      30.14R
MEDFORD        CLEAR     56  55  99 CALM      30.13S FOG
MERRILL        CLEAR     57  56  97 CALM      30.12S
$$

WIZ029-030-035-036-043>047-020600-
CENTRAL WISCONSIN

CITY           SKY/WX    TMP DP  RH WIND       PRES   REMARKS
WAUSAU         CLEAR     61  60  97 CALM      30.11R FOG
MOSINEE        CLEAR     59  59 100 CALM      30.13S
MARSHFIELD     CLEAR     59  57  93 CALM      30.11S FOG
STEVENS POINT  CLEAR     54  54  98 CALM      30.13R FOG
WAUPACA        CLEAR     59  55  89 CALM      30.12S
WAUTOMA        CLEAR     55  54  97 CALM      30.13R FOG
WISC RAPIDS    CLEAR     58  56  93 NE3       30.13R
CAMP DOUGLAS   FOG       55  55 100 CALM      30.11R VSB 3/4
$$

WIZ011>013-019>022-031-037>040-048>050-020600-
NORTHEAST WISCONSIN

CITY           SKY/WX    TMP DP  RH WIND       PRES   REMARKS
ANTIGO         CLEAR     56  53  91 CALM      30.13S
STURGEON BAY   CLEAR     61  57  88 E7        30.10R
GREEN BAY      CLEAR     63  60  90 W8        30.09S
MANITOWOC      CLEAR     65  62  90 W3        30.09S
APPLETON       CLEAR     59  55  88 NW7       30.12R
CLINTONVILLE   CLEAR     57  55  94 CALM      30.11R
OSHKOSH        CLEAR     61  59  93 W3        30.11R FOG
$$

WIZ032>034-041-042-053>061-020600-
SOUTHWEST WISCONSIN

CITY           SKY/WX    TMP DP  RH WIND       PRES   REMARKS
LA CROSSE      PTCLDY    68  56  65 SE6       30.09S
SPARTA         CLEAR     59  56  90 CALM      30.12S
VIROQUA        FAIR      64  53  68 S3        30.13R
BOSCOBEL       PTCLDY    61  55  81 CALM      30.11R
PRAIRIE DU CHI CLEAR     65  53  65 CALM      30.11S
PLATTEVILLE    FAIR      64  56  78 SE8       30.12F
$$

WIZ056-057-062-063-064-067-068-020600-
SOUTH CENTRAL WISCONSIN

CITY           SKY/WX    TMP DP  RH WIND       PRES   REMARKS
BARABOO/DELLS  PTCLDY    58  55  89 S3        30.13R
LONE ROCK      MOCLDY    63  57  81 E7        30.12R
WATERTOWN      CLEAR     58  57  96 CALM      30.11R
MADISON        PTCLDY    65  58  78 SW6       30.12R
MIDDLETON      FAIR      64  57  78 S3        30.13S
MONROE         MOCLDY    63  57  82 S10       30.11F
JANESVILLE     MOCLDY    63  54  72 CALM      30.10F
$$

WIZ051-052-058>065-066-070>072-020600-
SOUTHEAST WISCONSIN

CITY           SKY/WX    TMP DP  RH WIND       PRES   REMARKS
MILWAUKEE      PTCLDY    62  55  77 NW3       30.08F
WAUKESHA       PTCLDY    57  54  88 CALM      30.11S
MILWAUKEE/TIMM PTCLDY    59  54  82 NW3       30.10S
RACINE         MOCLDY    60  56  86 CALM      30.10S
BURLINGTON     MOCLDY    56  55  96 CALM      30.09R
KENOSHA        MOCLDY    58  56  93 E5        30.08S
FOND DU LAC    CLEAR     57  55  93 CALM      30.11S
SHEBOYGAN      CLEAR     59  56  89 W5        30.10S
WEST BEND      CLEAR     59  54  82 CALM      30.11R
JUNEAU         CLEAR     60  54  81 S3        30.13R
$$

LSZ147-162-020600-
LAKE SUPERIOR

STATION/POSITION TIME  TEMP    WIND        PRES    WAVE
                       AIR SEA DIR/SP/G            HT/PER
                 (UTC) (F)     (DEG/KT/KT) (MB)    (FT/S)
W MID LAKE BUOY  0450   49 47   30/  4/  4 1019.7R   0
PORT WING        0440   59      40/  2/  5 1019.3R
SAXON HARBOR     0440             CALM     1019.0S
$$

LMZ867-665-643>646-020600-
LAKE MICHIGAN

STATION/POSITION TIME  TEMP    WIND        PRES    WAVE
                       AIR SEA DIR/SP/G            HT/PER
                 (UTC) (F)     (DEG/KT/KT) (MB)    (FT/S)
N MID LAKE BUOY  0450   61 60   30/  4/  4 1019.0R   0
NORTHPORT PIER   0400   63      80/  4/  6 1019.0F
SISTER BAY       0411   62     100/  6/  9   N/A
ALGOMA LAKESHORE 0451             CALM       N/A
KEWAUNEE LAKESHO 0400   59        CALM     1017.8F
SHEBOYGAN LAKESH 0500   67     210/  7/  8 1019.1R
PORT WASHINGTON  0400   67     270/  9/ 12 1019.3
ATWATER BUOY     0500   65     280/ 10     1019.5F
MILWAUKEE LAKESH 0400   69     230/  8/  9   N/A
S MID LAKE BUOY  0450   66 64  310/  4/  8 1019.2R   0
KENOSHA   LAKESH 0500   65      80/  7/  8 1018.3F
$$

TC  - TEMPERATURE IN CELSIUS
VSB - VISIBILITY IN STATUTE MILES
WCI - WIND CHILL INDEX
HX  - HEAT INDEX



USA.gov is the U.S. government's official web portal to all federal, state and local government web resources and services.